Location: Briis
(48.6240°N, 2.1211°E)
Time: 14:45:20
(UTC+00:00)

Cosmos 1339 Rocket - Pass Details

Date: 25 September 2020
Orbit: 941 x 1006 km, 82.9° (Epoch: 21 October)

Event Time Altitude Azimuth Distance (km) Brightness Sun altitude
Exits shadow 03:12:46 46° 198° (SSW) 1,287 4.8 -24.6°
Maximum altitude 03:14:47 81° 279° (W) 986 4.3 -24.3°
Drops below altitude 10° 03:21:00 10° 8° (N) 2,701 7.2 -23.4°
Sets 03:23:29 0° 9° (N) 3,643 8.0 -23.0°
